Wind_Speed
24 23 23 22 22 21 21 20 20 20 19 19 19 19 19 19 19 19 19 18 18 17 16 16 16 15 15 15 15 16 16 16 16 17 17 16 16 15 15 15 14 14 14 14 14 15 15 15 16 17 17 18 18 19 19 20 20 21 22 23 23 24 24 25 26 26 25 24 21 18 15 16 16 16 17 19 22 23 22 22 22 22 21 20 19 19 17 16
26 26 25 24 24 23 23 22 22 22 22 21 21 21 21 22 22 21 21 20 19 19 18 18 18 17 17 17 17 18 18 18 18 18 18 18 18 18 17 17 16 16 16 16 17 17 18 18 19 19 20 20 21 21 21 21 22 23 24 25 25 26 27 27 27 27 25 23 21 18 16 16 17 17 18 18 22 25 25 23 23 24 22 21 20 19 19 17
29 28 27 27 26 26 25 25 24 24 24 24 24 24 24 24 23 23 23 22 21 21 20 20 20 20 19 19 20 20 20 20 20 20 20 20 20 19 19 19 19 19 19 19 19 20 20 21 22 22 23 23 23 23 23 23 24 25 26 27 28 28 29 29 28 27 24 22 20 18 16 18 19 19 19 18 21 27 27 24 25 26 25 24 22 19 19 18
31 30 30 29 28 28 27 27 27 26 26 26 26 26 25 25 25 25 24 24 23 23 22 22 22 22 22 22 22 22 22 23 22 21 21 21 21 21 21 20 20 21 21 21 21 22 23 23 24 24 24 25 25 25 25 25 26 27 28 29 29 30 30 29 27 26 23 21 19 18 18 20 22 22 21 20 21 26 27 26 27 27 27 27 24 21 19 19
33 32 32 31 31 30 30 29 29 28 28 28 28 27 27 27 27 26 26 25 25 25 25 24 24 24 24 24 24 24 24 25 24 22 22 22 22 22 22 22 22 22 23 23 23 24 24 25 25 26 26 27 27 27 27 27 28 29 30 30 30 29 30 28 26 24 23 21 20 19 20 23 25 25 24 23 22 24 26 27 28 28 28 28 27 24 21 20
35 34 34 33 33 32 32 31 31 30 30 30 29 29 29 28 28 28 28 27 27 27 27 27 27 26 26 26 26 26 26 27 25 24 24 24 24 24 24 24 24 24 24 24 25 25 26 27 27 28 28 29 29 29 29 29 30 30 30 30 28 27 27 26 24 24 23 22 21 20 22 25 26 26 26 27 25 24 26 28 29 29 28 28 27 26 24 23
37 36 36 35 35 34 34 33 33 32 32 31 31 31 30 30 30 30 30 29 29 29 29 29 29 29 29 28 28 27 28 29 27 25 27 26 26 26 25 26 26 26 26 26 27 27 28 29 29 30 30 30 30 30 29 29 28 28 28 27 26 24 25 24 23 24 24 22 22 23 25 28 27 26 28 29 28 26 27 28 29 29 29 28 28 27 26 25
38 38 37 37 36 36 35 35 35 34 34 33 33 33 32 32 32 32 32 32 31 31 31 32 31 31 31 30 30 29 30 31 28 27 28 28 28 28 27 27 27 28 28 29 29 30 31 31 31 31 30 29 28 28 27 26 25 25 25 24 24 23 23 23 24 25 25 24 25 26 28 29 28 26 28 30 29 29 29 28 29 29 30 29 28 28 26 25
40 39 39 38 38 38 37 37 36 36 36 35 35 35 34 34 34 34 34 34 34 34 34 34 34 34 33 32 31 30 31 32 30 29 30 30 30 30 29 29 29 30 30 31 32 32 33 32 31 30 29 28 27 27 26 26 25 24 23 22 23 23 23 24 24 26 26 26 28 28 29 30 28 27 30 30 29 30 31 30 29 29 29 29 29 28 27 25
42 41 41 41 40 40 39 39 38 38 38 37 37 37 37 37 37 37 37 37 37 36 36 36 35 35 34 33 31 31 33 33 31 31 31 31 31 31 32 32 32 32 33 33 34 34 34 33 31 31 30 28 28 28 28 27 27 26 24 23 24 24 24 25 27 28 29 29 31 30 30 30 28 28 31 31 29 30 31 31 30 29 30 29 29 29 28 27
44 44 43 43 42 42 42 41 41 41 40 40 40 40 40 40 40 40 39 39 38 37 37 36 36 35 35 34 32 32 34 33 32 33 33 33 33 34 34 34 34 35 35 36 36 35 34 33 32 32 31 30 30 31 31 30 30 29 27 25 25 26 26 28 30 30 32 32 33 32 30 29 28 30 32 32 31 30 31 31 31 31 30 30 29 29 29 29
47 46 46 45 45 45 44 44 44 43 43 43 43 42 42 42 41 41 40 39 38 37 37 36 36 35 35 33 32 33 34 34 34 34 34 35 35 36 36 37 37 37 37 37 37 36 35 34 34 34 34 33 33 33 33 33 32 31 30 28 28 28 28 31 32 32 33 34 34 33 30 27 28 31 32 32 32 31 31 31 31 31 31 30 30 29 29 29
49 48 48 47 47 47 46 46 46 45 45 44 44 43 43 42 42 41 40 39 39 38 38 37 37 36 36 34 33 35 35 35 36 37 37 37 38 38 39 39 39 39 39 38 37 36 36 36 36 36 36 35 35 35 35 34 33 33 33 31 30 31 31 32 33 33 33 34 34 34 31 27 27 32 33 32 32 32 32 31 30 30 30 29 29 29 29 29
50 49 49 48 48 48 48 47 47 46 46 45 45 44 44 44 43 43 42 42 41 41 40 40 40 39 38 37 36 38 38 38 39 39 40 40 40 41 41 41 41 41 40 39 38 38 38 38 38 38 38 38 37 37 36 35 34 34 34 33 32 32 31 31 32 33 33 34 34 35 34 29 27 31 34 34 33 33 32 31 29 29 28 28 28 29 29 29
51 51 50 50 50 49 49 49 48 48 48 47 46 46 46 46 45 45 45 44 44 43 43 43 42 42 42 39 39 40 40 41 41 41 42 42 42 42 42 42 42 41 41 40 40 40 40 40 40 40 39 39 38 37 36 35 34 34 35 34 33 32 30 30 31 33 34 35 36 36 36 32 28 30 33 34 34 33 32 31 29 28 27 28 28 29 29 29
52 52 51 51 50 50 50 50 50 49 49 49 48 48 48 47 47 47 46 46 46 45 45 45 44 45 44 41 41 41 41 42 43 43 43 43 43 43 43 43 42 42 43 42 42 42 42 42 41 41 40 39 38 37 37 36 35 35 36 35 34 33 32 30 31 34 35 37 38 38 38 34 30 31 33 33 33 32 31 30 29 28 28 28 28 29 29 29
53 53 52 52 52 51 51 51 50 50 50 50 49 49 48 48 48 47 47 47 47 46 46 46 45 46 46 43 42 42 42 43 44 43 44 44 44 44 44 44 44 44 44 44 44 43 43 42 42 41 40 39 37 37 37 37 36 36 37 36 36 35 35 33 32 35 37 38 38 38 37 35 33 33 33 32 31 31 30 29 29 29 29 29 29 29 29 28
52 52 52 52 52 52 52 51 51 51 51 51 50 50 50 49 49 48 48 48 47 47 47 47 47 48 47 45 44 43 44 44 44 45 45 45 45 45 45 45 45 45 45 45 44 43 43 42 41 41 39 37 36 37 39 39 38 38 38 38 38 38 37 35 33 35 38 39 38 37 36 34 33 33 33 31 30 30 30 30 30 30 30 30 29 29 28 28
51 51 51 51 51 51 51 51 51 51 51 51 51 51 50 50 50 50 49 49 48 47 48 48 47 48 47 45 45 45 45 45 45 45 45 45 45 45 45 44 44 44 44 43 42 42 42 41 41 40 37 35 37 40 41 41 40 40 40 40 40 39 38 35 34 36 38 39 37 36 35 34 33 33 33 31 30 30 30 30 30 30 30 29 29 28 27 27
51 51 51 50 50 50 50 50 50 49 49 49 49 49 49 49 49 49 48 47 46 46 46 46 45 45 45 44 44 44 43 43 44 43 43 43 43 43 43 42 42 42 42 41 42 42 42 43 42 39 36 38 41 42 42 42 42 41 41 41 40 39 37 35 36 37 39 39 36 34 34 33 32 33 33 32 31 30 30 30 30 29 29 28 27 27 26 26
52 51 51 50 50 50 50 49 50 50 49 49 48 48 48 47 47 47 46 45 45 45 44 45 45 44 43 44 44 44 44 44 43 43 43 42 43 43 43 43 43 42 42 43 44 44 45 46 43 39 39 41 42 42 42 42 41 41 41 40 39 38 37 36 37 38 39 40 37 34 33 31 32 32 31 31 31 30 30 30 29 28 27 27 26 26 26 26
53 53 52 51 51 50 50 49 49 49 49 49 49 49 49 48 48 48 47 47 45 45 45 45 45 44 43 44 45 45 46 46 45 44 45 44 44 44 44 44 44 43 44 45 46 46 47 46 42 40 42 43 42 42 42 41 41 40 39 39 38 37 37 38 38 38 39 39 37 35 33 31 31 30 29 29 28 29 29 29 28 28 27 27 26 26 26 27
55 55 54 53 52 52 51 50 50 50 50 50 50 50 50 50 50 50 49 49 46 45 45 44 44 43 43 43 44 45 46 45 44 44 44 44 44 44 45 45 44 44 45 45 45 46 47 45 42 42 43 42 41 41 40 40 39 38 38 38 37 35 37 38 38 37 37 37 36 35 33 31 29 28 27 27 27 28 29 28 28 28 28 28 28 28 28 29
57 56 56 55 54 54 53 52 52 51 51 51 51 51 51 51 51 50 50 50 48 45 44 45 45 45 44 45 46 47 46 44 43 43 42 42 42 42 43 43 44 44 44 44 44 45 45 44 42 42 42 42 42 41 40 39 39 39 39 38 37 36 37 38 37 37 36 36 35 35 34 32 29 29 29 28 28 29 29 29 28 28 29 29 29 29 30 30
58 58 57 56 56 55 55 54 53 53 53 53 53 53 52 52 52 51 51 52 52 48 46 46 48 48 47 47 48 48 49 48 46 44 43 42 42 42 42 41 42 42 41 41 42 43 43 41 41 41 42 42 42 41 40 40 40 40 39 37 37 38 38 38 38 38 37 37 36 36 37 35 32 31 31 30 30 31 31 30 29 30 30 30 30 30 31 31
60 59 59 58 58 57 56 56 55 56 56 55 55 55 55 54 53 53 52 55 57 53 49 49 49 50 49 48 49 49 51 52 49 46 45 43 43 43 43 42 42 41 39 40 42 43 42 40 40 42 42 42 42 41 39 40 41 40 36 35 37 38 38 39 39 40 40 39 39 39 39 38 36 34 33 32 32 33 32 31 31 31 31 31 32 32 32 33
61 60 60 60 59 59 58 58 58 58 58 57 57 57 57 56 55 55 53 57 60 57 53 53 51 51 51 50 51 51 54 54 50 49 48 46 45 45 45 45 43 42 41 41 43 42 40 40 41 42 42 41 40 39 39 40 40 38 35 36 38 39 39 40 40 41 42 42 41 40 40 39 37 36 34 33 34 34 34 34 34 33 34 34 34 34 34 35
62 62 61 61 60 60 60 60 60 59 59 59 59 59 59 58 57 57 55 58 62 59 57 57 54 52 51 52 52 52 53 53 53 52 50 49 49 48 47 46 44 43 42 43 43 41 40 41 41 41 42 40 39 39 40 40 38 37 37 38 39 39 40 41 42 42 42 42 42 40 39 39 39 38 38 36 36 36 36 35 35 35 36 36 36 36 37 38
63 63 62 62 62 62 61 61 60 60 60 60 60 61 60 59 59 58 57 60 63 62 61 59 56 53 52 52 52 51 51 52 53 53 51 51 50 48 47 45 45 44 43 43 42 40 40 41 40 40 39 38 39 40 39 38 38 38 38 38 39 40 41 42 42 42 43 42 42 40 39 40 41 42 43 41 38 37 37 36 36 36 37 38 38 38 40 41
64 64 64 64 63 63 62 62 61 62 61 62 62 62 61 61 60 58 60 62 63 62 62 60 57 55 53 51 49 46 46 47 48 49 49 49 49 48 47 46 45 44 43 43 41 40 40 40 39 39 38 37 38 38 38 38 38 38 38 38 39 40 41 42 42 42 43 43 42 41 40 41 43 45 45 44 42 40 38 37 37 37 38 38 39 40 41 42
60 61 61 61 61 61 61 61 62 62 62 62 62 62 62 61 60 60 63 63 60 61 61 59 58 55 51 46 41 39 39 39 40 42 44 45 45 45 44 44 44 43 43 42 40 40 40 39 39 38 38 38 38 38 38 38 37 37 38 38 40 41 42 42 43 43 44 44 43 43 43 43 45 46 46 45 44 43 41 39 38 38 39 40 41 42 43 44
53 54 54 54 54 53 51 52 54 56 57 56 56 58 58 59 61 63 64 61 59 60 59 56 55 51 44 40 37 35 34 34 35 36 38 40 41 41 41 41 42 42 43 41 40 39 39 38 38 38 38 38 37 37 37 37 38 39 40 40 41 42 43 43 43 44 44 44 44 45 45 46 47 46 45 44 44 44 43 42 42 43 43 43 44 45 46 46
49 50 49 47 46 45 43 43 45 48 49 50 53 56 56 59 61 60 60 59 58 58 56 51 49 45 41 39 37 36 36 36 36 36 37 38 39 40 40 41 42 42 43 41 40 39 38 37 37 36 37 37 37 38 38 40 41 41 41 42 42 43 43 44 43 43 44 44 44 46 47 49 49 47 45 44 44 44 44 44 45 46 47 47 47 48 49 49
49 49 48 45 43 43 42 42 42 44 46 48 51 55 56 58 57 54 53 53 52 51 50 47 45 44 43 42 40 40 41 41 40 40 40 39 40 40 40 41 41 42 43 42 41 39 37 36 35 36 37 38 39 40 40 41 41 40 40 40 41 41 42 42 43 45 46 45 46 47 49 50 49 48 47 46 46 45 44 45 46 47 47 48 48 49 49 50
49 49 48 48 47 46 44 43 43 45 47 49 50 54 57 57 54 51 50 49 47 47 47 47 46 46 47 45 44 45 43 42 42 43 42 41 40 39 39 40 41 42 43 42 41 40 39 38 37 37 38 39 40 40 40 40 39 39 39 40 41 40 41 43 45 47 47 48 49 50 50 49 49 49 49 49 48 46 46 47 48 48 48 48 48 49 49 49
50 50 50 50 49 48 47 47 46 48 50 51 53 55 56 55 54 52 51 51 50 49 48 48 48 48 49 48 47 46 43 42 41 42 42 40 40 40 39 40 41 42 43 43 43 43 43 42 41 40 40 40 40 39 39 38 39 41 41 41 40 40 42 44 46 47 48 50 52 51 51 50 50 51 52 50 49 49 49 50 50 49 49 48 48 49 49 49
53 50 50 52 51 50 51 49 49 51 53 55 58 58 55 54 54 53 54 55 54 51 50 51 51 51 51 50 48 46 44 43 43 42 41 39 39 40 39 40 42 43 44 43 44 45 46 46 46 44 42 41 40 39 39 40 41 42 42 41 41 42 43 44 45 47 49 51 53 53 53 53 52 53 53 51 51 51 51 51 51 50 49 49 49 49 50 50
54 52 52 54 53 52 53 52 52 53 52 54 58 57 55 54 54 54 56 57 55 53 53 53 52 52 52 51 49 47 47 47 45 43 41 40 41 42 42 43 43 43 43 43 45 47 48 48 48 46 42 40 39 39 41 42 42 42 42 42 43 45 45 45 46 48 50 53 55 55 54 55 54 54 53 53 53 52 51 50 50 50 49 49 49 50 51 51
51 54 56 55 51 50 51 53 55 54 52 53 54 55 55 55 54 53 53 54 52 51 51 52 52 52 51 50 49 48 49 49 46 44 44 44 44 46 46 44 41 39 39 42 44 44 43 42 43 44 41 40 42 43 43 42 40 41 42 44 45 46 47 48 49 50 52 55 57 57 57 57 56 55 54 53 52 52 51 50 49 49 49 49 49 50 51 51
47 50 54 55 52 50 49 49 52 54 54 53 53 53 53 53 52 52 51 51 50 48 48 50 51 50 50 50 50 50 50 49 48 47 47 47 48 48 47 42 38 37 38 39 41 41 42 43 45 47 47 47 47 46 43 41 42 43 45 46 47 47 48 49 51 52 53 56 56 57 59 60 58 56 56 54 52 52 51 49 48 48 49 50 51 51 52 53
46 48 50 51 51 53 52 52 53 55 55 54 53 53 51 50 50 50 50 50 51 50 49 49 49 48 49 50 51 52 53 53 53 52 50 50 50 48 46 43 42 43 44 45 46 47 49 50 51 51 51 50 47 45 45 45 46 47 47 48 48 48 49 51 54 54 53 54 53 54 59 62 60 58 58 55 53 51 51 50 50 51 52 53 53 54 55 56
48 50 50 49 51 53 55 57 57 56 56 54 52 51 50 49 48 49 49 49 49 50 50 50 50 49 49 50 50 51 52 53 54 52 51 50 50 48 49 50 51 51 51 50 50 50 51 51 52 51 50 48 47 48 49 50 50 50 50 49 49 50 50 50 52 52 50 51 52 53 58 61 59 56 56 56 54 52 52 53 54 54 55 55 55 55 56 58
54 53 50 49 52 54 56 57 58 58 58 55 52 51 49 48 46 47 48 48 49 49 49 50 50 49 49 50 51 51 51 51 51 51 50 50 51 52 54 56 56 55 53 51 50 50 50 51 51 50 50 51 52 53 54 54 55 54 52 51 50 48 46 46 47 48 49 53 53 54 57 59 57 54 54 55 55 54 54 56 57 58 57 57 57 57 58 59
59 58 54 51 53 56 58 58 58 58 58 57 56 55 53 51 50 49 49 49 50 48 47 47 48 48 49 50 50 49 48 48 48 49 49 50 52 53 53 53 53 53 52 51 50 50 51 51 50 50 52 54 55 56 57 58 57 55 54 53 50 47 46 47 49 50 53 55 54 54 57 57 55 54 54 57 57 56 57 58 59 59 59 59 60 60 61 61
60 61 59 56 54 56 58 59 58 59 58 57 58 58 57 57 57 56 54 52 50 46 43 45 47 50 52 52 51 49 47 45 44 45 46 48 50 51 50 49 49 50 51 52 53 53 53 54 54 56 58 59 60 61 62 61 58 57 56 54 51 50 51 51 51 52 56 57 56 58 60 58 55 55 57 58 59 58 59 60 60 59 60 61 62 63 64 64
59 60 61 60 58 57 57 57 57 59 59 59 59 60 60 60 59 59 59 57 54 51 50 51 52 54 57 57 56 55 52 49 48 48 48 49 51 52 52 53 52 52 53 54 54 54 54 54 56 58 61 62 62 62 62 62 60 58 57 55 54 55 55 54 55 56 58 60 60 60 60 59 57 58 60 62 61 60 61 61 61 61 63 64 65 66 66 67
60 60 61 63 63 60 58 56 54 54 56 58 59 59 59 59 59 59 60 59 58 57 57 57 57 58 59 60 59 59 57 55 54 53 52 52 54 55 55 56 56 56 56 56 55 54 53 53 53 55 58 60 59 59 59 59 58 57 56 55 55 55 56 57 59 60 59 60 62 61 62 63 62 62 64 64 61 60 61 62 64 65 66 67 67 68 69 69
62 62 62 64 65 64 63 60 56 54 54 55 57 59 60 60 61 62 62 61 60 59 59 59 58 58 59 60 61 61 61 61 61 59 58 58 58 58 59 58 58 59 58 58 57 56 55 55 56 56 58 59 59 59 58 57 56 55 55 54 54 55 58 60 61 62 61 63 65 66 67 68 66 64 66 65 63 64 65 67 68 68 69 69 70 70 70 70
60 61 61 62 62 63 63 61 60 58 58 58 60 61 61 61 61 61 61 61 60 58 58 58 57 57 60 62 63 63 63 63 64 65 65 64 64 64 64 63 63 63 62 60 58 58 59 61 62 61 61 61 60 59 58 58 58 57 56 55 55 57 61 63 63 64 65 67 67 67 69 68 65 64 66 66 66 68 68 69 69 69 70 71 71 71 71 70
58 58 60 60 61 62 62 61 61 61 61 63 63 61 62 63 62 61 60 60 59 58 58 58 57 59 62 63 64 64 63 65 66 66 66 67 68 69 70 70 69 68 68 66 64 64 65 66 67 65 64 63 62 61 60 59 60 60 58 56 57 60 63 64 65 66 67 69 68 67 69 68 65 65 67 67 68 69 68 68 68 68 69 70 70 69 69 68
57 55 57 59 60 61 62 62 62 62 62 63 61 60 61 63 63 62 62 61 61 60 60 60 60 61 63 63 63 63 64 67 69 68 67 67 68 69 70 71 71 70 71 70 69 69 68 67 67 65 65 64 62 62 61 61 62 63 61 59 60 62 63 65 66 67 67 67 66 67 69 68 65 65 66 67 67 67 66 66 67 67 68 68 67 67 66 66
57 55 55 58 60 60 60 60 61 63 63 62 61 61 63 63 63 63 63 63 61 60 60 61 61 63 64 64 64 64 65 67 68 68 68 68 68 68 68 68 69 68 68 68 68 68 67 66 65 64 65 65 64 64 64 64 66 67 63 60 61 63 64 66 67 66 65 65 66 68 68 66 65 66 66 66 65 65 66 66 66 66 66 66 66 65 65 65
Wind_Direction
227 228 229 230 232 233 234 235 235 236 237 238 240 242 244 246 248 249 251 253 255 258 261 265 268 271 275 278 281 283 286 286 283 280 276 273 272 271 270 269 269 269 270 271 272 274 275 276 277 278 279 281 282 283 284 286 288 290 290 291 293 295 296 298 300 301 301 300 298 300 303 305 306 303 300 299 298 295 293 294 296 294 297 303 306 306 305 305
231 232 233 234 235 237 238 239 240 240 241 242 243 245 246 248 249 250 252 253 255 258 261 265 268 270 272 275 278 280 282 282 280 278 274 272 271 269 269 270 270 271 272 274 276 278 279 280 280 281 282 283 284 285 287 289 290 291 292 293 294 296 296 297 297 298 297 295 294 296 300 301 301 301 300 299 297 293 292 296 295 294 299 303 304 306 305 304
234 234 235 236 238 239 240 241 242 243 244 245 247 247 248 249 251 252 253 255 257 259 262 265 268 270 272 274 277 279 280 279 277 275 273 271 270 269 269 270 271 272 273 275 277 278 280 281 281 282 283 284 285 286 287 289 291 291 292 293 294 295 295 295 295 294 293 291 291 293 297 298 299 300 299 297 293 290 293 297 296 298 302 303 304 305 303 301
235 236 237 239 240 241 242 243 243 244 246 247 248 249 250 251 252 253 254 256 258 260 263 265 268 270 272 274 276 278 278 277 275 273 271 270 269 269 270 271 272 273 274 276 277 279 280 281 282 283 284 284 285 285 287 288 289 290 291 292 294 294 294 293 292 291 289 286 287 291 295 298 300 300 299 294 287 286 292 296 297 301 304 304 305 304 302 300
236 237 238 239 241 242 243 243 244 245 247 248 249 249 250 251 253 254 256 257 259 262 264 266 268 270 272 274 275 276 277 274 273 273 270 268 267 268 269 271 272 273 275 276 278 279 281 282 283 283 284 284 285 285 286 287 288 289 290 291 292 293 291 291 289 287 285 283 284 288 293 296 300 302 301 294 288 289 293 296 299 301 302 303 305 305 304 301
237 238 239 240 241 242 243 244 245 246 247 248 249 250 251 252 254 255 257 259 261 262 264 266 268 270 272 273 274 275 274 271 272 272 269 268 268 268 270 271 273 274 276 277 279 280 282 283 284 285 286 286 286 287 287 287 288 289 290 290 291 291 289 289 287 283 282 282 284 288 292 296 301 304 301 296 294 296 297 298 300 300 300 302 303 304 304 303
238 239 239 240 241 242 243 244 245 246 247 248 249 250 252 253 255 256 258 260 262 263 265 267 268 270 271 272 272 272 270 270 271 270 268 269 269 270 271 273 275 276 278 279 280 282 283 285 285 286 286 287 287 287 287 287 288 289 290 290 291 289 287 287 285 282 282 284 286 290 295 298 303 304 299 297 299 300 298 299 299 300 300 301 301 301 302 302
239 239 240 241 242 243 243 244 245 246 247 249 250 251 253 254 256 257 259 261 262 264 266 267 269 269 271 271 271 270 268 269 270 267 267 269 269 271 272 273 275 277 279 280 281 283 284 285 286 286 286 286 286 287 287 288 288 289 289 290 289 287 285 284 283 282 284 286 288 292 297 299 302 300 295 296 299 299 298 297 298 299 299 299 299 298 299 300
240 240 241 242 244 244 245 246 247 248 249 250 252 253 255 256 258 259 260 262 263 265 266 267 268 269 270 269 268 267 266 267 268 267 267 268 269 270 271 273 275 276 278 280 282 284 285 285 285 284 284 284 285 285 286 287 287 287 287 287 286 284 282 281 280 280 283 286 288 293 296 297 298 296 292 293 296 296 296 296 296 296 296 296 297 297 298 298
241 242 243 244 245 246 247 248 249 251 252 253 254 255 257 258 260 261 262 263 264 265 266 267 267 268 268 267 266 265 264 265 266 266 266 267 268 270 271 273 275 277 279 280 282 284 284 284 283 282 282 282 283 284 284 285 285 285 285 283 280 279 279 278 278 280 283 285 287 291 293 293 294 292 290 292 293 293 293 294 294 293 293 294 296 298 299 298
243 244 245 245 247 248 249 250 251 253 254 255 256 258 259 260 261 262 263 263 264 265 265 265 265 266 265 265 264 263 263 265 265 265 266 267 269 271 273 274 276 278 279 281 282 283 283 282 281 280 280 281 281 282 283 283 283 283 282 280 277 276 276 276 277 280 283 286 287 288 288 289 291 288 288 291 292 291 291 291 292 292 293 294 296 297 297 296
246 246 247 248 249 250 251 252 253 254 255 256 257 259 259 260 261 261 262 262 263 263 263 263 263 263 263 262 262 261 263 264 265 266 267 268 270 272 274 276 277 278 280 281 281 281 280 279 279 279 280 281 281 282 282 282 282 281 280 278 276 276 275 275 277 280 282 284 285 286 285 287 288 287 287 289 290 289 288 289 290 292 293 295 295 294 293 293
247 248 249 250 250 251 252 253 254 255 256 257 257 258 259 259 260 260 261 261 262 262 262 262 262 262 262 262 262 263 264 265 266 268 269 270 272 273 275 276 277 278 279 279 279 279 279 278 278 278 280 281 281 281 281 281 281 280 279 277 275 274 275 276 278 281 281 282 282 283 284 285 286 286 288 288 287 287 287 287 288 290 291 292 291 290 290 289
248 249 249 250 251 252 252 253 254 255 255 256 257 257 258 258 259 260 260 261 262 262 262 263 263 263 263 263 263 264 265 266 267 269 270 271 272 274 275 276 276 277 278 278 278 278 278 278 279 279 280 280 281 281 281 282 281 280 279 277 275 273 273 276 280 281 281 281 282 283 283 285 286 286 287 287 287 288 288 289 288 288 289 288 288 287 287 287
249 249 250 250 251 252 253 254 254 255 256 256 257 258 258 259 260 260 261 262 262 263 263 264 264 264 265 264 264 265 266 267 268 268 270 271 272 273 274 275 275 276 276 277 277 277 278 278 279 280 280 280 281 281 282 282 281 281 279 277 276 276 277 279 280 281 282 282 283 283 284 286 286 284 285 286 288 289 289 289 289 288 287 286 286 286 286 286
249 250 250 251 252 253 254 255 255 256 257 257 258 258 259 260 260 261 262 262 263 264 264 264 265 265 265 265 265 265 266 267 268 269 270 271 271 272 273 274 275 275 276 276 277 277 278 279 279 279 280 281 282 283 283 282 281 280 278 278 279 281 281 281 281 282 283 283 284 284 286 288 288 286 285 286 287 288 288 288 288 287 286 284 284 284 284 284
250 251 251 252 252 253 254 255 256 257 257 258 259 259 259 260 261 261 262 263 263 264 265 265 266 267 267 266 266 267 267 267 268 269 270 270 271 272 273 274 275 275 276 276 277 278 278 278 278 278 279 281 283 284 283 280 280 278 279 281 282 283 283 283 283 283 283 283 283 285 287 290 289 287 286 286 287 287 287 286 286 285 285 283 282 282 282 282
250 251 252 253 253 254 255 255 256 257 258 258 259 260 260 261 262 262 263 263 264 265 266 267 267 268 268 269 268 268 268 268 269 269 270 271 271 272 273 274 274 275 275 276 277 277 277 277 277 277 279 283 284 282 279 279 280 280 282 283 283 284 284 285 286 283 282 282 283 286 288 289 289 287 286 286 286 286 285 285 284 284 283 282 281 281 281 280
250 251 252 253 254 255 255 256 257 257 258 259 259 260 261 262 262 263 263 264 265 266 267 267 268 269 269 269 269 269 269 269 269 269 269 270 271 272 272 273 273 274 275 276 276 276 276 276 276 277 281 283 280 277 277 279 281 282 283 283 284 284 285 287 286 283 282 282 284 286 287 288 288 287 286 286 285 285 284 283 283 282 281 281 281 281 280 279
250 251 252 253 254 255 256 256 257 258 258 259 260 260 261 262 263 263 264 264 265 265 266 267 267 268 269 269 269 269 268 268 268 268 269 270 270 271 271 272 272 273 275 276 276 275 275 275 276 279 283 280 276 277 278 280 281 282 282 282 283 284 286 287 285 282 282 282 283 284 285 287 286 284 284 285 285 284 283 282 281 281 280 279 279 279 279 279
250 250 251 253 254 255 256 257 257 258 259 259 260 261 261 262 263 263 263 264 264 265 265 266 266 267 268 269 268 268 268 268 268 268 269 269 269 270 271 271 272 273 275 275 274 275 275 275 278 281 279 276 276 278 279 280 280 281 281 282 283 284 286 285 283 282 282 282 284 283 283 284 282 282 282 283 283 282 282 282 282 281 280 278 277 276 277 279
250 251 251 252 253 255 256 257 258 258 259 259 260 261 261 262 262 263 263 262 263 264 265 265 266 267 268 269 269 269 268 268 268 268 268 268 269 270 270 271 272 273 273 273 274 275 275 276 279 279 277 277 278 279 279 280 280 281 282 282 282 285 285 283 281 281 281 283 285 285 284 282 281 281 281 281 281 281 281 282 282 282 281 279 277 277 278 279
251 251 252 252 253 255 256 257 258 259 259 260 260 261 261 262 262 262 263 262 261 261 263 265 266 268 269 270 271 270 269 269 269 269 269 270 270 271 271 270 271 271 271 272 273 274 274 276 277 276 276 277 278 278 278 279 281 282 282 282 284 286 284 281 281 282 283 285 285 285 285 283 282 282 281 281 281 281 281 282 282 281 281 280 280 281 282 283
250 251 252 253 253 254 256 257 258 259 260 260 261 261 262 262 262 263 263 263 261 259 261 264 266 268 270 270 270 270 270 270 270 271 271 272 272 273 272 271 269 270 271 272 273 273 273 275 276 276 276 276 276 276 277 279 281 281 281 283 285 284 282 282 283 284 284 284 285 285 285 284 284 284 284 284 284 283 282 282 282 282 282 281 283 284 285 285
250 251 252 253 254 255 256 257 258 259 260 261 261 261 262 262 263 263 264 264 262 261 261 263 266 268 270 271 271 271 271 270 270 271 272 273 274 274 274 272 270 271 272 272 272 272 273 275 276 276 275 275 275 276 278 279 279 278 280 282 283 282 281 282 283 283 283 283 284 284 284 284 285 285 286 286 286 285 284 284 284 283 283 284 284 284 285 285
249 250 251 252 253 255 256 257 258 258 259 260 261 261 262 262 263 263 264 265 264 263 262 263 265 267 270 272 273 272 271 270 270 271 272 273 274 274 273 271 271 273 274 272 271 272 274 275 275 274 273 273 275 277 278 277 276 278 280 280 279 279 280 281 281 281 281 282 282 282 283 284 284 285 286 286 285 285 285 285 285 284 284 284 284 283 284 285
249 250 251 252 253 254 255 256 257 258 259 259 260 261 261 262 262 263 264 265 264 264 264 264 265 267 270 272 273 272 270 270 270 271 271 272 273 273 272 271 271 273 273 271 271 273 275 274 272 272 273 273 275 275 274 274 276 279 279 277 276 277 278 278 279 279 280 281 281 281 283 283 282 284 285 284 283 284 285 284 284 284 284 284 283 283 284 285
249 250 251 252 253 254 255 256 257 257 258 259 260 260 261 261 262 262 262 263 264 265 265 265 266 268 270 273 274 273 271 270 269 269 270 270 270 270 270 271 271 270 269 269 271 273 273 272 271 271 272 273 273 273 273 275 276 277 276 275 276 276 276 277 277 278 279 280 280 282 285 284 282 282 283 282 282 283 283 283 283 283 282 282 282 282 284 285
249 251 252 253 254 255 256 257 257 258 258 259 259 260 260 260 260 261 260 261 265 266 267 268 269 271 273 275 275 274 271 269 268 268 267 267 267 267 268 268 268 267 268 269 270 270 270 270 271 271 271 272 272 272 273 275 275 275 275 275 275 275 275 276 276 278 279 278 279 283 286 284 281 281 282 283 283 282 282 282 281 280 280 279 279 280 281 282
250 251 252 253 254 255 256 257 257 258 258 258 258 258 258 258 259 259 258 261 265 267 268 270 271 273 275 275 275 273 272 270 267 266 264 263 264 264 265 265 266 266 266 267 268 268 269 269 270 271 271 271 271 272 274 274 274 275 275 275 274 274 274 275 276 277 277 277 279 282 282 280 279 281 283 284 284 284 283 282 280 279 278 278 278 279 280 281
249 250 250 252 253 254 255 256 256 256 256 257 257 257 257 257 258 257 258 261 265 266 268 271 272 273 274 274 272 272 272 271 267 263 261 261 261 261 262 263 263 264 264 265 266 267 267 267 268 269 269 270 271 272 273 273 273 273 273 273 272 272 273 274 275 276 276 277 278 279 277 276 277 279 281 283 286 287 287 284 282 282 281 281 281 281 282 283
249 250 249 249 250 251 253 254 254 254 255 257 258 258 257 256 255 256 258 262 264 266 268 270 272 272 270 268 268 270 272 271 266 262 259 258 258 258 259 260 261 262 264 266 266 265 265 265 265 266 267 269 270 270 271 271 271 271 271 271 271 272 273 274 275 276 276 276 275 275 275 276 277 278 280 284 287 289 289 289 289 289 288 287 287 287 287 287
248 251 252 250 249 250 250 250 250 250 253 254 255 257 256 255 255 258 260 261 263 265 267 268 269 267 265 264 265 268 271 269 266 263 261 259 258 259 259 261 263 264 265 266 265 264 263 263 264 265 267 268 268 269 270 270 270 270 270 271 272 273 274 275 276 275 274 273 272 273 274 276 278 280 283 285 286 287 289 290 290 290 290 290 290 290 290 291
242 246 251 251 249 248 247 248 248 249 250 251 253 255 254 255 259 262 262 261 261 262 264 265 265 264 264 264 266 269 271 269 266 264 263 262 262 262 264 265 265 265 265 266 265 264 263 263 265 265 266 267 267 269 269 269 269 270 271 272 273 274 276 277 276 275 274 273 273 273 274 277 281 283 285 285 286 287 287 287 287 287 287 288 289 289 290 290
240 239 243 244 244 245 246 246 247 248 250 250 250 250 250 252 256 258 259 259 260 260 260 261 262 262 263 264 268 270 270 268 265 264 264 263 263 264 266 267 266 266 266 266 266 264 263 264 265 266 267 268 269 269 269 268 269 270 272 274 276 276 275 275 275 274 275 275 275 276 277 280 283 285 286 287 288 288 288 287 286 286 287 287 287 287 287 287
240 238 240 241 242 243 244 244 244 245 248 248 247 247 249 251 251 252 256 257 257 257 256 257 258 260 262 265 268 268 266 265 264 262 262 262 263 265 266 268 268 267 266 266 266 265 264 265 266 267 268 269 270 270 270 270 271 273 276 277 278 277 273 272 273 274 275 276 278 280 281 283 285 286 287 288 289 289 289 288 288 288 289 288 287 286 286 286
242 240 241 242 243 243 242 243 244 244 245 246 245 246 249 250 248 250 253 255 255 254 253 254 257 260 262 265 266 264 261 261 262 262 261 263 266 267 268 270 270 267 266 265 265 264 265 267 269 269 269 270 272 274 275 276 276 279 282 282 280 277 274 272 273 275 277 278 281 283 284 286 287 288 289 289 289 289 289 289 289 290 290 289 288 287 287 287
243 244 242 241 241 241 240 240 242 243 244 245 244 244 244 245 245 248 250 251 252 252 251 253 255 258 261 262 262 260 258 259 261 261 261 264 268 269 272 274 271 267 265 265 266 267 269 271 273 273 273 274 277 277 278 279 281 282 283 281 277 274 274 273 273 275 277 279 282 285 287 289 290 290 290 289 289 289 289 290 289 289 289 288 288 287 287 287
239 241 242 241 241 240 238 237 238 238 239 240 241 241 240 240 242 243 244 245 246 247 248 251 254 256 258 258 257 257 257 258 259 259 261 265 269 271 273 272 269 267 267 269 271 272 272 273 274 275 275 275 278 279 279 281 280 277 275 274 273 271 270 271 271 273 275 277 280 285 288 290 290 290 288 288 288 289 290 290 289 289 289 289 288 287 287 287
237 238 239 240 242 241 237 234 232 231 232 234 235 235 235 236 236 237 238 239 239 240 242 246 249 251 253 255 254 254 255 257 258 258 262 266 270 272 272 268 263 262 261 262 263 262 263 266 270 272 272 273 277 278 277 275 270 268 268 268 269 268 268 270 271 273 274 276 280 284 287 289 289 288 287 287 290 290 290 290 290 290 290 288 287 286 286 285
239 241 238 236 237 236 234 232 229 227 227 229 230 230 232 232 232 233 234 234 235 237 239 241 243 244 246 249 252 253 255 257 259 261 264 268 270 270 268 262 257 255 254 255 256 258 262 266 270 271 272 273 274 272 270 266 264 264 264 266 268 270 272 274 275 277 278 279 281 281 283 286 288 288 289 290 292 292 291 291 291 290 289 287 285 285 285 284
238 240 238 234 232 231 231 232 232 230 228 227 229 231 232 231 230 231 233 234 236 237 239 240 241 243 245 247 249 252 254 256 259 261 263 265 264 263 261 259 258 258 260 261 263 264 265 266 267 269 270 271 269 267 265 263 263 264 266 270 274 276 278 278 279 281 279 278 279 278 280 286 288 288 290 292 293 293 292 291 290 289 287 285 285 284 283 282
237 238 236 233 233 233 232 231 231 231 230 229 230 233 234 233 233 235 235 236 238 239 241 242 243 245 248 249 251 253 254 256 256 256 257 259 260 261 261 262 263 264 265 265 264 263 261 260 261 263 264 265 265 264 263 262 264 269 273 277 278 279 279 277 277 278 275 278 280 277 281 288 289 290 292 292 291 291 290 288 287 286 285 285 284 282 281 281
236 236 236 235 234 234 235 233 230 230 231 230 231 233 235 237 241 244 245 244 247 249 250 251 250 249 248 250 252 254 256 257 257 257 257 258 259 261 261 261 261 261 261 260 259 258 257 257 258 259 259 260 260 261 263 266 271 275 277 277 278 278 278 277 277 276 276 281 282 278 282 290 291 291 293 290 288 288 286 284 284 285 286 285 284 283 281 281
239 238 237 237 235 233 234 235 234 234 234 235 236 237 239 242 245 249 251 252 252 251 249 250 252 252 251 250 250 252 252 252 252 252 252 254 255 255 253 251 251 252 253 255 256 257 258 258 258 259 259 260 261 262 266 269 272 274 274 275 277 278 278 278 278 277 279 284 284 282 287 291 290 291 290 286 285 286 285 285 285 286 285 284 283 282 281 281
241 239 238 237 236 234 233 234 236 237 239 241 242 243 244 246 248 250 252 253 251 249 246 246 250 253 255 255 254 254 252 249 247 246 246 248 248 248 248 247 247 249 251 253 255 257 258 259 260 260 261 262 263 264 265 266 267 269 271 273 275 277 278 279 279 280 284 285 284 285 288 287 288 290 287 284 286 287 285 285 286 284 283 281 281 281 281 281
237 236 236 235 236 236 236 235 236 238 240 241 243 245 247 249 251 252 253 253 253 251 249 248 250 253 256 258 258 257 255 252 248 247 246 246 245 244 244 245 246 248 250 252 254 256 259 260 261 263 263 264 265 266 267 268 269 271 273 274 277 279 281 282 282 284 285 282 283 288 288 286 287 289 287 286 287 286 284 284 283 282 281 281 281 281 282 282
232 231 230 230 232 234 236 237 235 234 235 236 239 244 247 250 252 254 255 255 253 252 251 251 252 254 254 255 256 256 257 257 255 253 250 248 246 245 245 246 248 250 252 255 258 260 262 262 263 265 266 267 268 269 270 272 272 273 274 277 280 282 283 282 282 283 282 281 284 288 286 285 289 289 287 286 286 284 283 282 282 282 282 283 282 282 282 282
226 226 226 227 229 231 232 233 231 230 230 232 235 240 245 249 251 252 253 253 252 251 251 252 254 253 252 251 252 255 257 258 257 255 253 251 249 249 249 250 251 253 255 259 261 262 264 265 266 268 269 269 270 271 271 272 272 273 274 276 279 280 281 281 282 284 284 283 285 284 282 284 287 285 283 282 282 280 280 280 281 281 281 281 281 281 281 282
221 223 226 228 230 231 232 232 231 231 231 231 234 238 242 245 246 247 247 248 249 249 249 250 251 251 249 250 251 253 255 255 255 254 253 252 251 251 252 253 254 256 258 260 263 264 266 268 268 270 271 271 270 271 272 272 273 273 274 276 278 278 280 283 285 285 284 283 283 281 280 281 282 280 279 278 277 277 277 278 279 279 279 279 279 280 281 281
220 222 225 227 229 231 233 234 235 235 234 235 237 239 242 244 245 247 248 249 250 251 251 251 252 252 252 253 254 255 255 255 255 255 255 254 253 253 253 254 256 258 260 262 264 266 268 270 271 271 272 271 271 272 272 273 273 273 274 277 279 280 283 284 283 282 281 281 281 279 278 279 279 277 276 276 276 277 278 279 278 278 278 279 279 280 281 281
223 226 230 231 232 233 235 236 238 239 240 241 243 244 245 246 248 250 253 253 254 255 255 255 256 257 258 259 260 260 259 259 259 259 259 259 259 258 259 259 259 261 262 263 265 266 268 270 271 272 273 273 272 273 274 274 273 273 276 280 281 282 282 280 279 279 279 279 277 276 276 277 277 275 275 276 277 278 278 278 278 279 279 280 280 280 280 281
Height
5848 5849 5850 5851 5852 5853 5854 5855 5856 5857 5858 5858 5859 5860 5860 5861 5862 5862 5863 5863 5863 5864 5864 5865 5865 5865 5866 5866 5866 5866 5867 5867 5867 5867 5867 5867 5867 5867 5867 5867 5868 5868 5868 5868 5868 5868 5868 5868 5868 5868 5868 5868 5868 5868 5868 5868 5867 5867 5866 5865 5865 5864 5864 5864 5863 5863 5862 5862 5862 5862 5862 5862 5861 5861 5860 5859 5856 5855 5855 5855 5855 5854 5855 5856 5856 5856 5856 5856
5846 5847 5848 5849 5850 5851 5852 5853 5854 5855 5856 5857 5857 5858 5859 5859 5860 5860 5861 5861 5862 5862 5863 5863 5863 5864 5864 5865 5865 5865 5865 5865 5865 5866 5866 5866 5866 5866 5866 5866 5866 5866 5866 5866 5866 5866 5866 5866 5866 5866 5866 5866 5866 5866 5866 5866 5865 5864 5864 5863 5863 5862 5862 5862 5861 5861 5860 5860 5860 5860 5860 5860 5860 5860 5859 5859 5856 5852 5852 5853 5852 5852 5854 5855 5855 5855 5855 5854
5844 5845 5846 5847 5848 5849 5850 5851 5852 5853 5854 5855 5855 5856 5857 5857 5858 5858 5859 5860 5860 5860 5861 5861 5862 5862 5863 5863 5863 5863 5863 5863 5864 5864 5864 5864 5864 5864 5864 5864 5864 5864 5864 5864 5864 5864 5864 5864 5864 5864 5864 5864 5864 5864 5864 5863 5863 5862 5861 5861 5860 5860 5859 5859 5859 5858 5858 5858 5858 5858 5858 5858 5858 5858 5858 5858 5855 5850 5849 5850 5850 5850 5851 5852 5853 5854 5853 5853
5841 5843 5844 5845 5846 5847 5848 5849 5850 5851 5852 5852 5853 5854 5854 5855 5856 5856 5857 5857 5858 5858 5859 5859 5860 5860 5861 5861 5861 5861 5861 5861 5862 5862 5862 5862 5862 5862 5862 5862 5862 5862 5862 5862 5862 5862 5862 5862 5862 5862 5862 5862 5861 5861 5861 5861 5860 5860 5859 5859 5858 5857 5857 5857 5856 5856 5856 5856 5856 5856 5856 5855 5855 5856 5855 5855 5854 5850 5848 5849 5848 5849 5849 5849 5850 5851 5851 5851
5838 5840 5841 5842 5843 5844 5845 5846 5847 5848 5849 5850 5851 5851 5852 5853 5853 5854 5855 5855 5856 5856 5857 5857 5858 5858 5858 5859 5859 5859 5859 5859 5859 5860 5860 5860 5860 5860 5860 5860 5860 5860 5860 5860 5860 5860 5860 5860 5860 5860 5860 5859 5859 5859 5859 5859 5858 5857 5856 5856 5856 5855 5854 5854 5854 5853 5853 5853 5854 5854 5854 5853 5853 5852 5852 5851 5851 5849 5848 5847 5847 5847 5847 5847 5847 5847 5848 5849
5836 5837 5838 5839 5840 5841 5842 5843 5844 5845 5846 5847 5848 5849 5849 5850 5851 5851 5852 5853 5853 5854 5854 5855 5855 5856 5856 5857 5857 5857 5857 5856 5857 5858 5857 5857 5857 5857 5857 5857 5858 5858 5858 5858 5858 5858 5858 5857 5857 5857 5857 5856 5856 5856 5856 5856 5856 5855 5854 5853 5854 5853 5851 5851 5851 5850 5851 5851 5852 5852 5852 5851 5850 5850 5848 5847 5847 5848 5847 5846 5845 5845 5845 5845 5845 5845 5845 5845
5833 5834 5835 5836 5837 5838 5839 5840 5841 5842 5843 5844 5845 5846 5847 5847 5848 5849 5849 5850 5851 5851 5852 5852 5853 5853 5854 5854 5854 5855 5854 5853 5855 5856 5855 5855 5855 5855 5855 5855 5855 5855 5855 5855 5855 5855 5855 5855 5855 5854 5854 5853 5853 5853 5853 5853 5853 5852 5851 5851 5851 5850 5849 5848 5848 5848 5848 5849 5849 5849 5849 5848 5848 5848 5845 5843 5844 5845 5845 5844 5843 5843 5843 5843 5843 5843 5842 5843
5829 5830 5832 5833 5834 5835 5836 5837 5838 5839 5840 5841 5842 5843 5844 5844 5845 5846 5846 5847 5848 5849 5849 5849 5850 5850 5851 5851 5852 5852 5851 5850 5852 5853 5852 5852 5852 5852 5852 5852 5853 5852 5852 5852 5852 5852 5852 5852 5852 5851 5851 5850 5850 5850 5850 5850 5850 5850 5849 5849 5848 5848 5847 5846 5846 5845 5845 5846 5846 5847 5846 5845 5846 5846 5843 5841 5842 5841 5842 5842 5841 5840 5840 5840 5840 5840 5840 5840
5826 5827 5828 5829 5830 5832 5833 5834 5835 5836 5837 5838 5839 5840 5840 5841 5842 5842 5843 5844 5845 5846 5846 5846 5847 5847 5848 5848 5849 5849 5848 5848 5849 5850 5849 5849 5849 5849 5850 5850 5850 5850 5850 5849 5849 5849 5849 5849 5848 5848 5848 5848 5847 5847 5847 5847 5847 5847 5847 5847 5846 5845 5845 5844 5844 5843 5843 5844 5843 5844 5844 5843 5844 5843 5840 5840 5840 5839 5839 5839 5839 5838 5837 5837 5837 5837 5838 5838
5822 5824 5825 5826 5827 5828 5829 5830 5831 5833 5834 5835 5835 5836 5837 5838 5838 5839 5840 5841 5841 5842 5843 5843 5844 5844 5845 5845 5846 5846 5844 5845 5846 5846 5846 5846 5846 5846 5846 5847 5847 5847 5847 5846 5846 5846 5846 5845 5845 5845 5845 5845 5845 5844 5844 5844 5844 5845 5845 5845 5844 5843 5843 5842 5841 5841 5841 5841 5841 5842 5842 5841 5841 5840 5837 5837 5838 5837 5836 5836 5836 5835 5835 5835 5835 5834 5834 5835
5819 5820 5821 5822 5823 5824 5826 5827 5828 5829 5830 5831 5832 5833 5834 5834 5835 5836 5836 5837 5838 5839 5839 5840 5840 5841 5842 5842 5843 5843 5841 5842 5843 5843 5843 5843 5843 5843 5843 5843 5843 5843 5843 5843 5843 5843 5842 5842 5842 5842 5842 5842 5842 5841 5841 5841 5841 5841 5842 5842 5842 5841 5841 5839 5839 5839 5839 5838 5838 5839 5840 5839 5839 5837 5835 5835 5835 5835 5834 5834 5833 5832 5832 5832 5832 5832 5831 5831
5815 5816 5817 5818 5819 5821 5822 5823 5824 5825 5826 5827 5828 5829 5830 5831 5831 5832 5833 5834 5834 5835 5836 5836 5837 5838 5838 5839 5840 5839 5839 5839 5839 5839 5839 5840 5840 5840 5840 5840 5840 5840 5840 5840 5839 5839 5839 5839 5839 5838 5839 5839 5839 5838 5838 5838 5838 5838 5838 5839 5838 5838 5838 5837 5836 5837 5836 5835 5835 5835 5837 5838 5836 5834 5833 5833 5832 5831 5831 5831 5831 5830 5830 5829 5829 5829 5828 5827
5811 5812 5813 5814 5815 5817 5818 5819 5820 5821 5822 5823 5824 5825 5826 5827 5827 5828 5829 5830 5831 5831 5832 5833 5834 5834 5835 5837 5837 5836 5836 5836 5836 5836 5836 5836 5836 5836 5836 5836 5836 5836 5836 5836 5836 5836 5835 5835 5835 5835 5835 5835 5836 5835 5834 5835 5835 5835 5834 5835 5835 5835 5835 5834 5833 5834 5833 5832 5831 5831 5833 5835 5834 5831 5829 5830 5829 5828 5828 5828 5828 5828 5827 5827 5826 5825 5825 5824
5806 5808 5809 5810 5811 5812 5814 5815 5816 5817 5818 5819 5820 5821 5822 5823 5823 5824 5825 5826 5827 5828 5828 5829 5830 5830 5831 5833 5833 5832 5832 5832 5832 5832 5832 5832 5833 5832 5832 5832 5832 5832 5832 5832 5832 5832 5831 5831 5831 5831 5832 5832 5832 5831 5831 5831 5831 5831 5830 5830 5831 5831 5832 5831 5830 5830 5829 5828 5828 5827 5828 5832 5832 5829 5826 5826 5825 5825 5825 5825 5825 5825 5825 5824 5823 5822 5821 5821
5802 5803 5805 5806 5807 5808 5809 5810 5811 5813 5814 5815 5816 5816 5817 5818 5819 5820 5821 5822 5822 5823 5824 5824 5825 5826 5827 5829 5829 5829 5828 5828 5828 5828 5828 5828 5828 5828 5828 5828 5828 5828 5828 5828 5828 5828 5828 5827 5827 5827 5828 5828 5827 5827 5827 5827 5827 5827 5826 5826 5826 5827 5829 5829 5828 5826 5826 5824 5824 5823 5824 5827 5829 5827 5824 5823 5822 5822 5822 5822 5822 5821 5821 5820 5820 5819 5818 5818
5797 5799 5800 5801 5803 5804 5805 5806 5807 5808 5809 5810 5811 5812 5813 5813 5815 5815 5816 5817 5818 5819 5819 5820 5820 5821 5822 5824 5825 5825 5824 5824 5824 5824 5824 5824 5824 5824 5824 5824 5824 5824 5824 5824 5824 5824 5824 5823 5823 5823 5823 5824 5824 5824 5823 5823 5823 5823 5821 5821 5823 5823 5825 5826 5825 5823 5822 5821 5820 5819 5820 5822 5824 5823 5821 5820 5820 5819 5819 5818 5818 5818 5818 5817 5816 5816 5815 5815
5792 5794 5795 5797 5798 5799 5800 5801 5802 5803 5804 5805 5806 5807 5808 5809 5810 5811 5812 5813 5813 5814 5814 5815 5816 5816 5817 5819 5820 5821 5820 5820 5820 5820 5820 5820 5820 5820 5820 5820 5820 5820 5819 5819 5819 5820 5820 5819 5819 5819 5819 5820 5821 5820 5818 5818 5819 5818 5817 5818 5819 5819 5820 5821 5822 5820 5817 5816 5816 5816 5816 5818 5819 5818 5817 5817 5817 5816 5816 5815 5815 5814 5814 5814 5813 5813 5812 5812
5788 5789 5790 5792 5793 5795 5796 5797 5798 5799 5800 5800 5801 5802 5803 5804 5805 5806 5807 5808 5808 5809 5810 5811 5811 5811 5812 5815 5816 5816 5816 5816 5816 5816 5816 5816 5816 5816 5816 5816 5816 5816 5815 5815 5816 5815 5815 5815 5815 5815 5816 5818 5817 5816 5814 5813 5814 5814 5814 5814 5814 5815 5815 5817 5818 5816 5813 5812 5812 5812 5813 5814 5814 5813 5813 5813 5813 5812 5812 5812 5811 5811 5810 5810 5809 5809 5808 5808
5783 5784 5785 5787 5788 5790 5791 5792 5793 5794 5795 5795 5796 5797 5798 5799 5800 5801 5802 5803 5804 5805 5805 5806 5806 5807 5808 5810 5810 5811 5811 5811 5811 5811 5811 5811 5812 5812 5812 5812 5812 5811 5811 5811 5811 5811 5810 5810 5810 5812 5814 5815 5812 5810 5810 5810 5810 5810 5810 5810 5810 5810 5811 5813 5813 5810 5808 5808 5809 5809 5809 5809 5810 5808 5808 5809 5809 5809 5808 5808 5808 5807 5807 5806 5805 5805 5805 5804
5778 5779 5780 5782 5783 5784 5786 5787 5788 5789 5790 5790 5791 5792 5793 5794 5794 5795 5797 5798 5799 5800 5800 5801 5802 5803 5803 5804 5805 5806 5806 5806 5807 5807 5807 5807 5807 5807 5807 5807 5808 5807 5807 5808 5807 5806 5806 5805 5807 5810 5811 5809 5807 5806 5806 5806 5806 5806 5806 5806 5806 5806 5807 5808 5807 5805 5804 5803 5805 5806 5805 5806 5805 5804 5804 5804 5804 5804 5804 5804 5804 5803 5803 5802 5802 5801 5801 5801
5772 5774 5775 5777 5778 5779 5780 5782 5783 5784 5785 5786 5787 5787 5788 5789 5789 5790 5792 5793 5794 5795 5796 5796 5797 5798 5799 5799 5800 5801 5801 5802 5802 5803 5803 5803 5803 5802 5803 5803 5803 5803 5804 5803 5802 5802 5802 5801 5804 5807 5805 5803 5802 5803 5802 5802 5802 5802 5802 5802 5801 5802 5803 5803 5802 5800 5799 5798 5800 5802 5802 5802 5801 5800 5800 5800 5800 5799 5799 5799 5799 5799 5799 5799 5798 5798 5797 5797
5767 5768 5770 5771 5773 5774 5775 5777 5778 5779 5780 5781 5782 5782 5783 5784 5784 5785 5786 5787 5789 5790 5791 5791 5792 5794 5795 5794 5795 5796 5796 5797 5797 5798 5798 5798 5798 5798 5799 5799 5799 5799 5799 5798 5798 5798 5797 5797 5801 5801 5799 5798 5799 5798 5798 5797 5798 5798 5798 5797 5797 5799 5798 5797 5796 5796 5795 5794 5795 5795 5796 5797 5796 5796 5796 5796 5795 5795 5794 5794 5794 5794 5795 5794 5794 5794 5794 5793
5761 5763 5764 5766 5767 5768 5770 5771 5772 5774 5775 5776 5777 5777 5778 5779 5779 5780 5780 5781 5784 5786 5786 5787 5787 5789 5790 5790 5790 5790 5790 5792 5793 5793 5793 5793 5794 5794 5793 5794 5794 5794 5794 5794 5794 5793 5792 5794 5796 5795 5794 5794 5794 5794 5793 5793 5793 5793 5793 5792 5793 5795 5793 5791 5791 5791 5790 5790 5790 5790 5790 5792 5792 5792 5792 5791 5791 5791 5790 5790 5790 5790 5790 5790 5789 5789 5789 5789
5755 5757 5758 5760 5761 5763 5764 5766 5767 5769 5769 5770 5771 5772 5773 5773 5774 5774 5775 5774 5777 5781 5782 5782 5782 5784 5785 5785 5785 5785 5785 5787 5788 5788 5788 5789 5789 5789 5788 5789 5789 5789 5789 5790 5790 5788 5788 5790 5791 5790 5790 5790 5789 5789 5790 5790 5789 5789 5788 5789 5789 5789 5787 5786 5786 5786 5785 5785 5785 5785 5785 5786 5787 5787 5787 5787 5787 5786 5786 5786 5786 5786 5786 5785 5785 5785 5784 5784
5750 5751 5753 5754 5756 5757 5759 5760 5762 5763 5764 5765 5766 5767 5768 5768 5769 5769 5769 5768 5769 5775 5778 5778 5777 5777 5779 5780 5780 5781 5780 5781 5782 5783 5784 5784 5784 5784 5783 5783 5783 5784 5785 5785 5784 5783 5784 5786 5786 5786 5785 5785 5784 5785 5786 5786 5784 5784 5785 5785 5784 5783 5783 5782 5782 5781 5781 5781 5781 5781 5780 5781 5783 5783 5782 5782 5782 5781 5781 5781 5781 5781 5781 5781 5781 5780 5780 5779
5744 5745 5747 5749 5750 5752 5753 5755 5757 5757 5759 5760 5761 5762 5762 5763 5764 5764 5764 5761 5761 5767 5772 5773 5773 5772 5773 5775 5775 5776 5774 5775 5777 5778 5778 5779 5779 5779 5778 5778 5778 5779 5780 5779 5778 5778 5780 5782 5781 5780 5780 5780 5780 5781 5781 5780 5778 5779 5781 5781 5779 5778 5778 5778 5777 5777 5776 5776 5777 5777 5776 5776 5777 5778 5778 5778 5777 5776 5776 5777 5777 5777 5777 5777 5777 5776 5776 5775
5737 5739 5741 5742 5744 5746 5748 5749 5751 5751 5753 5754 5755 5756 5757 5758 5758 5759 5759 5754 5753 5760 5764 5765 5767 5768 5769 5770 5770 5770 5768 5769 5772 5772 5773 5773 5773 5773 5772 5772 5773 5774 5774 5773 5772 5773 5776 5776 5775 5774 5774 5775 5776 5776 5775 5774 5774 5776 5776 5775 5774 5774 5774 5773 5773 5772 5772 5772 5772 5772 5773 5772 5772 5773 5774 5774 5773 5772 5773 5773 5773 5773 5773 5772 5772 5772 5771 5771
5731 5732 5734 5736 5738 5740 5742 5743 5745 5746 5747 5748 5750 5750 5751 5753 5753 5754 5753 5747 5747 5753 5756 5756 5760 5763 5764 5764 5764 5764 5763 5764 5765 5766 5767 5767 5766 5767 5767 5767 5768 5768 5768 5767 5768 5770 5770 5769 5770 5770 5769 5770 5771 5770 5770 5770 5771 5771 5771 5770 5770 5770 5769 5769 5768 5768 5768 5768 5768 5769 5770 5768 5768 5768 5768 5769 5770 5769 5769 5769 5769 5769 5769 5768 5768 5767 5767 5767
5723 5725 5728 5729 5731 5733 5735 5738 5739 5740 5741 5742 5743 5744 5745 5746 5746 5747 5745 5741 5743 5747 5747 5748 5753 5756 5758 5758 5758 5757 5757 5758 5758 5758 5760 5760 5760 5761 5761 5762 5762 5762 5762 5762 5763 5764 5764 5764 5765 5765 5765 5766 5766 5765 5766 5766 5766 5766 5766 5766 5766 5765 5765 5764 5764 5764 5764 5764 5764 5766 5766 5764 5763 5762 5761 5763 5765 5765 5765 5765 5765 5765 5764 5764 5764 5764 5763 5763
5717 5719 5721 5722 5725 5727 5729 5732 5733 5733 5734 5735 5736 5737 5738 5739 5740 5739 5735 5736 5740 5740 5740 5743 5746 5748 5750 5751 5751 5751 5751 5751 5751 5752 5752 5753 5754 5755 5755 5756 5756 5757 5757 5757 5758 5759 5759 5759 5760 5760 5761 5761 5761 5761 5762 5762 5762 5762 5762 5761 5761 5760 5760 5759 5759 5759 5759 5760 5761 5762 5761 5760 5758 5756 5756 5757 5758 5759 5760 5760 5760 5760 5760 5760 5760 5759 5759 5758
5710 5712 5713 5716 5719 5721 5723 5726 5726 5725 5726 5727 5729 5730 5731 5731 5732 5729 5727 5732 5736 5734 5735 5737 5738 5741 5743 5744 5745 5745 5745 5745 5746 5746 5746 5746 5748 5748 5749 5750 5751 5751 5751 5752 5754 5754 5754 5754 5755 5756 5756 5757 5757 5757 5758 5758 5758 5758 5757 5757 5756 5755 5755 5755 5755 5755 5755 5756 5757 5756 5755 5755 5753 5752 5751 5751 5752 5753 5753 5754 5754 5754 5754 5754 5754 5753 5753 5752
5703 5705 5707 5709 5713 5715 5717 5720 5719 5718 5719 5721 5722 5722 5723 5723 5720 5720 5724 5730 5730 5728 5731 5732 5732 5735 5737 5738 5739 5739 5740 5741 5741 5741 5741 5741 5742 5743 5744 5744 5746 5746 5747 5748 5749 5748 5749 5749 5750 5751 5752 5753 5753 5753 5754 5754 5754 5753 5752 5752 5751 5750 5750 5750 5751 5751 5752 5753 5752 5750 5749 5748 5747 5748 5748 5748 5748 5747 5746 5746 5746 5746 5746 5746 5746 5745 5744 5744
5698 5699 5700 5703 5707 5709 5712 5713 5713 5712 5713 5715 5715 5715 5716 5713 5711 5716 5721 5724 5723 5723 5726 5728 5728 5729 5730 5732 5734 5734 5735 5735 5736 5736 5736 5737 5737 5738 5739 5740 5741 5742 5742 5743 5744 5743 5744 5745 5746 5747 5748 5748 5749 5749 5749 5749 5749 5748 5748 5747 5747 5746 5746 5746 5747 5747 5747 5747 5747 5745 5744 5742 5742 5743 5744 5744 5743 5742 5742 5741 5740 5739 5739 5738 5738 5737 5736 5735
5693 5694 5695 5697 5700 5702 5705 5706 5706 5707 5708 5709 5710 5709 5706 5703 5706 5713 5715 5716 5719 5720 5721 5722 5723 5724 5724 5726 5728 5729 5730 5730 5731 5731 5732 5733 5734 5734 5735 5735 5736 5736 5737 5738 5738 5739 5740 5740 5741 5742 5743 5744 5744 5745 5745 5744 5744 5744 5743 5743 5743 5743 5743 5743 5742 5741 5740 5741 5741 5740 5738 5737 5738 5738 5738 5738 5738 5738 5738 5737 5736 5735 5734 5733 5732 5731 5730 5730
5687 5688 5689 5691 5693 5696 5699 5700 5701 5702 5702 5703 5703 5700 5697 5699 5704 5707 5708 5710 5714 5715 5716 5716 5717 5717 5718 5720 5721 5722 5723 5724 5725 5726 5727 5728 5729 5730 5730 5730 5731 5731 5732 5733 5734 5734 5735 5735 5736 5737 5738 5739 5739 5740 5740 5740 5739 5739 5739 5738 5739 5740 5739 5737 5736 5734 5734 5734 5734 5733 5733 5734 5734 5732 5732 5731 5732 5732 5731 5730 5729 5729 5729 5728 5727 5727 5726 5725
5680 5680 5681 5683 5687 5691 5693 5694 5696 5696 5695 5697 5694 5691 5693 5697 5700 5701 5703 5705 5707 5709 5710 5710 5711 5712 5712 5714 5716 5716 5717 5718 5719 5720 5721 5723 5724 5725 5726 5726 5726 5727 5727 5728 5728 5729 5729 5730 5731 5733 5734 5734 5734 5734 5734 5734 5733 5733 5734 5734 5734 5734 5733 5731 5730 5729 5728 5726 5727 5727 5727 5729 5729 5726 5726 5726 5725 5725 5724 5723 5722 5722 5723 5722 5721 5720 5720 5719
5672 5673 5675 5677 5682 5685 5686 5688 5690 5689 5689 5688 5684 5685 5690 5693 5695 5697 5698 5698 5700 5703 5704 5705 5706 5707 5707 5709 5710 5711 5711 5711 5713 5714 5715 5717 5718 5720 5721 5721 5722 5722 5722 5723 5723 5723 5724 5724 5725 5727 5728 5728 5728 5728 5727 5727 5727 5727 5728 5729 5728 5726 5725 5725 5724 5724 5723 5720 5720 5722 5722 5722 5722 5720 5719 5719 5718 5717 5717 5717 5716 5716 5716 5715 5714 5714 5713 5712
5666 5668 5669 5671 5675 5678 5680 5682 5683 5683 5682 5678 5676 5679 5683 5686 5689 5691 5692 5693 5694 5696 5697 5699 5701 5702 5703 5703 5703 5704 5705 5705 5707 5709 5710 5712 5712 5714 5715 5716 5716 5716 5717 5717 5717 5718 5719 5719 5718 5719 5720 5721 5721 5720 5719 5720 5721 5722 5722 5722 5721 5719 5719 5719 5718 5718 5717 5714 5714 5715 5715 5715 5715 5714 5713 5712 5711 5710 5711 5711 5710 5710 5710 5709 5708 5707 5706 5705
5660 5661 5662 5666 5669 5671 5674 5676 5675 5675 5672 5669 5670 5673 5676 5679 5683 5684 5686 5688 5689 5690 5691 5693 5695 5696 5697 5697 5697 5698 5698 5699 5701 5703 5704 5706 5707 5708 5709 5709 5710 5710 5711 5711 5711 5711 5712 5711 5711 5711 5713 5714 5713 5713 5714 5715 5716 5716 5715 5714 5714 5713 5713 5713 5713 5712 5711 5709 5707 5707 5708 5708 5707 5707 5706 5705 5705 5704 5704 5706 5705 5704 5704 5702 5701 5700 5699 5699
5653 5653 5655 5660 5663 5665 5668 5668 5667 5665 5663 5662 5666 5668 5671 5674 5677 5678 5681 5682 5683 5685 5686 5687 5689 5690 5690 5691 5691 5692 5692 5693 5695 5697 5698 5700 5701 5702 5703 5703 5704 5705 5705 5705 5705 5705 5705 5705 5706 5707 5707 5707 5708 5709 5710 5710 5710 5709 5708 5708 5708 5708 5708 5707 5707 5707 5705 5703 5703 5701 5701 5702 5701 5699 5698 5698 5701 5699 5697 5699 5698 5697 5697 5695 5694 5693 5693 5692
5647 5646 5649 5654 5656 5658 5661 5659 5657 5657 5656 5658 5661 5663 5665 5669 5671 5673 5675 5676 5678 5679 5681 5682 5683 5684 5685 5685 5685 5686 5686 5688 5689 5691 5692 5694 5696 5697 5698 5698 5699 5698 5698 5699 5699 5700 5699 5700 5701 5701 5700 5701 5703 5704 5704 5703 5702 5702 5702 5702 5703 5703 5703 5701 5699 5701 5699 5697 5698 5695 5693 5697 5698 5693 5690 5691 5694 5694 5691 5690 5690 5690 5689 5687 5686 5687 5686 5685
5640 5640 5643 5648 5649 5650 5652 5650 5651 5652 5652 5654 5657 5658 5660 5663 5665 5667 5669 5671 5672 5673 5674 5676 5677 5678 5679 5679 5679 5680 5680 5682 5684 5686 5687 5689 5690 5692 5692 5692 5691 5691 5691 5691 5692 5693 5693 5692 5693 5693 5694 5696 5697 5697 5697 5696 5696 5696 5696 5699 5700 5698 5697 5694 5691 5694 5693 5690 5691 5687 5685 5692 5694 5689 5686 5684 5686 5688 5685 5682 5681 5681 5680 5679 5680 5680 5678 5677
5633 5634 5638 5641 5641 5642 5643 5643 5644 5647 5648 5651 5653 5653 5655 5657 5658 5660 5662 5664 5664 5665 5667 5669 5671 5672 5673 5673 5673 5674 5675 5676 5678 5680 5682 5683 5684 5685 5685 5684 5684 5684 5684 5685 5686 5687 5686 5685 5686 5688 5689 5690 5689 5688 5689 5689 5689 5690 5692 5694 5692 5690 5690 5688 5685 5686 5684 5683 5685 5680 5678 5685 5687 5685 5683 5679 5677 5680 5679 5676 5674 5672 5673 5673 5672 5672 5671 5669
5626 5628 5632 5633 5634 5634 5634 5635 5639 5641 5642 5645 5647 5647 5649 5651 5652 5654 5656 5658 5658 5660 5662 5663 5664 5666 5666 5667 5668 5669 5670 5671 5671 5673 5675 5676 5677 5678 5678 5678 5678 5678 5678 5678 5679 5680 5679 5679 5681 5682 5682 5682 5682 5682 5682 5683 5684 5684 5685 5685 5684 5684 5683 5680 5679 5677 5674 5677 5679 5673 5671 5678 5679 5679 5679 5673 5670 5672 5671 5669 5668 5667 5666 5665 5663 5663 5662 5661
5620 5622 5624 5626 5627 5626 5627 5629 5633 5635 5636 5639 5640 5641 5642 5644 5646 5649 5651 5651 5652 5654 5656 5657 5658 5659 5659 5660 5662 5663 5664 5665 5665 5666 5667 5669 5670 5671 5671 5672 5672 5672 5672 5672 5673 5673 5672 5672 5673 5673 5673 5674 5676 5676 5676 5677 5677 5676 5677 5678 5677 5677 5676 5673 5672 5669 5666 5669 5671 5666 5665 5670 5673 5673 5670 5665 5664 5665 5663 5661 5662 5662 5659 5656 5654 5653 5653 5653
5613 5614 5616 5619 5620 5619 5621 5623 5626 5628 5629 5631 5632 5632 5635 5637 5639 5642 5643 5644 5646 5647 5648 5650 5651 5651 5652 5654 5656 5657 5658 5659 5659 5659 5662 5663 5663 5664 5664 5665 5666 5666 5665 5666 5668 5666 5663 5663 5664 5664 5665 5667 5668 5668 5667 5669 5669 5669 5670 5672 5671 5671 5670 5667 5664 5663 5662 5660 5660 5662 5662 5661 5664 5666 5660 5656 5658 5658 5656 5655 5655 5654 5651 5648 5647 5646 5645 5645
5604 5606 5609 5611 5612 5613 5615 5617 5619 5621 5622 5623 5623 5625 5628 5630 5632 5634 5635 5637 5638 5640 5640 5641 5644 5646 5647 5648 5648 5649 5651 5653 5653 5654 5657 5658 5657 5657 5657 5658 5659 5659 5659 5660 5660 5659 5656 5655 5656 5656 5656 5659 5659 5658 5659 5660 5661 5662 5663 5665 5665 5665 5664 5660 5656 5656 5657 5652 5650 5656 5656 5651 5655 5658 5652 5649 5651 5650 5648 5647 5646 5644 5642 5641 5640 5639 5637 5636
5597 5600 5602 5602 5604 5607 5609 5612 5614 5614 5614 5614 5615 5618 5621 5623 5625 5626 5628 5629 5630 5632 5632 5633 5638 5641 5641 5641 5640 5641 5644 5646 5646 5649 5650 5651 5651 5651 5650 5652 5652 5653 5654 5653 5653 5652 5648 5647 5650 5649 5648 5651 5651 5650 5652 5653 5653 5655 5656 5657 5660 5659 5655 5652 5649 5650 5650 5645 5644 5647 5645 5643 5649 5651 5644 5643 5644 5641 5639 5638 5636 5635 5634 5633 5631 5630 5628 5627
5590 5592 5594 5595 5597 5600 5602 5604 5605 5605 5606 5607 5608 5612 5615 5618 5619 5619 5620 5621 5621 5624 5624 5626 5632 5634 5632 5633 5633 5634 5638 5639 5638 5640 5641 5642 5644 5644 5644 5645 5646 5646 5647 5646 5645 5644 5640 5640 5643 5642 5641 5643 5643 5643 5645 5646 5645 5647 5650 5653 5655 5652 5647 5645 5644 5645 5643 5639 5640 5640 5635 5637 5645 5643 5637 5637 5636 5632 5631 5630 5629 5628 5626 5624 5622 5621 5620 5619
5582 5584 5586 5586 5588 5591 5593 5595 5596 5597 5599 5599 5602 5608 5611 5611 5613 5614 5613 5613 5614 5617 5618 5620 5624 5624 5622 5624 5626 5629 5634 5632 5629 5630 5632 5633 5635 5636 5636 5637 5639 5639 5639 5638 5637 5636 5633 5633 5635 5634 5632 5633 5636 5636 5636 5638 5638 5638 5643 5648 5648 5644 5641 5641 5640 5639 5635 5632 5633 5633 5627 5631 5638 5635 5630 5629 5626 5623 5624 5624 5623 5620 5618 5616 5615 5614 5613 5612
5574 5575 5577 5578 5580 5583 5584 5586 5588 5589 5591 5593 5599 5605 5604 5604 5608 5606 5604 5606 5607 5609 5611 5613 5615 5615 5614 5617 5620 5625 5626 5622 5619 5622 5624 5624 5625 5627 5628 5629 5631 5631 5630 5631 5629 5628 5627 5625 5627 5627 5623 5623 5628 5628 5627 5630 5629 5628 5636 5643 5641 5637 5637 5636 5632 5630 5628 5625 5625 5623 5620 5623 5628 5624 5620 5618 5617 5615 5616 5616 5614 5611 5609 5608 5607 5607 5605 5603
5565 5566 5568 5570 5572 5574 5577 5579 5580 5581 5585 5590 5594 5596 5595 5596 5599 5596 5595 5599 5601 5601 5603 5605 5606 5606 5608 5611 5614 5616 5614 5611 5611 5614 5614 5615 5617 5619 5620 5621 5623 5623 5623 5623 5622 5621 5621 5619 5619 5619 5613 5614 5619 5619 5618 5620 5617 5619 5632 5638 5635 5632 5630 5626 5622 5623 5622 5618 5614 5612 5612 5615 5616 5612 5611 5611 5610 5609 5608 5607 5605 5603 5602 5600 5599 5598 5596 5594